McAlester, OK

11:47 AM CDT on August 23, 2017 (GMT -0500)
McAlester Regional

Weather History for KMLC - August, 2013

Change the Weather History Date:

Tuesday, August 13, 2013

  Actual Average Record
Temperature  
Mean Temperature 74 °F -  
Max Temperature 81 °F 93 °F 107 °F (1956)
Min Temperature 69 °F 70 °F 52 °F (1967)
Cooling Degree Days 10    
Growing Degree Days 24 (Base 50)    
Moisture  
Dew Point 70 °F    
Average Humidity 92    
Maximum Humidity 100    
Minimum Humidity 74    
Precipitation  
Precipitation 0.72 in - - ()
Sea Level Pressure  
Sea Level Pressure 30.02 in    
Wind  
Wind Speed 5 mph (NE)    
Max Wind Speed 12 mph    
Max Gust Speed 16 mph    
Visibility 8 miles    
Events Rain , Thunderstorm    
Averages and records for this station are not official NWS values.
T = Trace of Precipitation, MM = Missing Value Source: NWS Daily Summary

Daily Weather History Graph

Daily Weather History Graph

Search for Another Location

Airport or City:

Trip Planner

Search our weather history database for the weather conditions in past years. The results will help you decide how hot, cold, wet, or windy it might be!

Date:

Astronomy

Aug. 13, 2013 Rise Set
Actual Time 6:42 AM CDT 8:13 PM CDT
Civil Twilight 6:15 AM CDT 8:40 PM CDT
Nautical Twilight 5:42 AM CDT 9:12 PM CDT
Astronomical Twilight 5:08 AM CDT 9:45 PM CDT
Moon 1:19 PM CDT (8/13) No Moon Set
Length of Visible Light 14h 24m
Length of Day
13h 31m
Waxing Crescent, 42% of the Moon is Illuminated
Aug 13
Waxing Crescent
Aug 14
First Quarter
Aug 20
Full
Aug 28
Last Quarter
Sep 5
New

Hourly Weather History & Observations

Time (CDT) Temp. Heat Index Dew Point Humidity Pressure Visibility Wind Dir Wind Speed Gust Speed Precip Events Conditions
12:53 AM 73.0 °F - 72.0 °F 96% 29.95 in 10.0 mi Calm Calm - N/A   Mostly Cloudy
1:53 AM 73.9 °F - 72.0 °F 93% 29.96 in 10.0 mi NNE 9.2 mph 16.1 mph N/A   Scattered Clouds
2:03 AM 73.4 °F - 71.6 °F 94% 30.00 in 10.0 mi NNE 9.2 mph - N/A Thunderstorm Mostly Cloudy
2:20 AM 75.2 °F - 71.6 °F 89% 30.04 in 8.0 mi NNW 11.5 mph - 0.02 in Rain , Thunderstorm Light Rain
2:28 AM 73.4 °F - 71.6 °F 94% 30.02 in 2.5 mi North 8.1 mph - 0.10 in Rain , Thunderstorm Heavy Thunderstorms and Rain
2:38 AM 73.4 °F - 71.6 °F 94% 30.02 in 6.0 mi North 4.6 mph - 0.11 in Rain , Thunderstorm Light Thunderstorms and Rain
2:53 AM 73.9 °F - 72.0 °F 93% 29.99 in 10.0 mi NE 3.5 mph - 0.11 in   Overcast
3:38 AM 73.4 °F - 71.6 °F 94% 29.99 in 8.0 mi ENE 4.6 mph - N/A   Partly Cloudy
3:53 AM 72.0 °F - 71.1 °F 97% 29.97 in 9.0 mi East 4.6 mph - N/A   Partly Cloudy
4:32 AM 71.6 °F - 71.6 °F 100% 29.99 in 8.0 mi East 5.8 mph - N/A   Mostly Cloudy
4:53 AM 72.0 °F - 71.1 °F 97% 29.97 in 7.0 mi ENE 5.8 mph - N/A   Overcast
5:53 AM 72.0 °F - 70.0 °F 93% 29.99 in 10.0 mi NE 4.6 mph - N/A   Mostly Cloudy
6:05 AM 71.6 °F - 69.8 °F 94% 30.01 in 10.0 mi Variable 5.8 mph - N/A   Mostly Cloudy
6:44 AM 71.6 °F - 69.8 °F 94% 30.01 in 10.0 mi ENE 6.9 mph - N/A   Mostly Cloudy
6:53 AM 71.1 °F - 70.0 °F 96% 29.99 in 10.0 mi Variable 6.9 mph - N/A   Scattered Clouds
7:53 AM 71.1 °F - 69.1 °F 93% 30.02 in 10.0 mi NE 4.6 mph - N/A   Mostly Cloudy
8:27 AM 71.6 °F - 69.8 °F 94% 30.05 in 10.0 mi NNE 4.6 mph - 0.01 in Rain , Thunderstorm Light Rain
8:40 AM 71.6 °F - 69.8 °F 94% 30.06 in 7.0 mi Variable 3.5 mph - 0.03 in Rain , Thunderstorm Light Thunderstorms and Rain
8:53 AM 70.0 °F - 68.0 °F 93% 30.05 in 5.0 mi North 3.5 mph - 0.05 in Rain , Thunderstorm Thunderstorms and Rain
8:57 AM 69.8 °F - 68.0 °F 94% 30.07 in 1.8 mi Calm Calm - 0.10 in Rain , Thunderstorm Rain
9:01 AM 69.8 °F - 69.8 °F 100% 30.07 in 0.8 mi Variable 4.6 mph - 0.23 in Rain , Thunderstorm Heavy Rain
9:11 AM 69.8 °F - 69.8 °F 100% 30.06 in 1.8 mi East 3.5 mph - 0.28 in Rain , Thunderstorm Rain
9:15 AM 69.8 °F - 69.8 °F 100% 30.05 in 2.0 mi ENE 5.8 mph - 0.29 in Rain Heavy Rain
9:27 AM 69.8 °F - 69.8 °F 100% 30.05 in 4.0 mi Variable 3.5 mph - 0.32 in Rain Rain
9:34 AM 69.8 °F - 68.0 °F 94% 30.06 in 5.0 mi Calm Calm - 0.34 in Rain Rain
9:53 AM 70.0 °F - 68.0 °F 93% 30.04 in 10.0 mi ESE 4.6 mph - 0.34 in Rain , Thunderstorm Light Rain
10:07 AM 69.8 °F - 69.8 °F 100% 30.06 in 8.0 mi East 3.5 mph - 0.01 in Rain Light Rain
10:18 AM 69.8 °F - 69.8 °F 100% 30.07 in 4.0 mi Calm Calm - 0.03 in Rain , Thunderstorm Light Rain
10:33 AM 69.8 °F - 69.8 °F 100% 30.05 in 1.8 mi SSE 5.8 mph - 0.09 in Rain Heavy Rain
10:40 AM 69.8 °F - 69.8 °F 100% 30.06 in 3.0 mi SSE 3.5 mph - 0.09 in Rain Light Rain
10:53 AM 70.0 °F - 69.1 °F 97% 30.03 in 2.0 mi South 5.8 mph - 0.14 in Rain , Thunderstorm Thunderstorms and Rain
10:56 AM 69.8 °F - 69.8 °F 100% 30.04 in 1.5 mi SSE 5.8 mph - 0.03 in Rain Heavy Rain
11:05 AM 69.8 °F - 69.8 °F 100% 30.04 in 3.0 mi SSE 3.5 mph - 0.05 in Rain Rain
11:53 AM 73.9 °F - 71.1 °F 91% 30.03 in 10.0 mi SW 3.5 mph - 0.06 in   Mostly Cloudy
12:53 PM 75.0 °F - 72.0 °F 90% 30.02 in 10.0 mi WNW 3.5 mph - 0.00 in   Overcast
1:53 PM 79.0 °F - 72.0 °F 79% 30.01 in 10.0 mi North 8.1 mph - 0.00 in   Partly Cloudy
2:48 PM 78.8 °F - 71.6 °F 78% 30.01 in 10.0 mi North 11.5 mph - N/A   Mostly Cloudy
2:53 PM 79.0 °F - 70.0 °F 74% 29.98 in 10.0 mi NNW 8.1 mph - N/A   Mostly Cloudy
3:53 PM 80.1 °F 83.6 °F 71.1 °F 74% 29.97 in 10.0 mi NNW 8.1 mph - N/A   Overcast
4:02 PM 78.8 °F - 71.6 °F 78% 29.99 in 10.0 mi North 9.2 mph - N/A   Overcast
4:53 PM 79.0 °F - 72.0 °F 79% 29.97 in 10.0 mi North 4.6 mph - N/A   Overcast
5:53 PM 79.0 °F - 72.0 °F 79% 29.96 in 10.0 mi Calm Calm - 0.00 in   Overcast
6:53 PM 75.9 °F - 72.0 °F 87% 29.96 in 10.0 mi Calm Calm - N/A   Overcast
7:53 PM 75.9 °F - 73.0 °F 91% 29.97 in 9.0 mi North 4.6 mph - 0.01 in Rain Light Rain
8:53 PM 75.0 °F - 72.0 °F 90% 29.99 in 10.0 mi NNE 3.5 mph - 0.01 in   Overcast
9:53 PM 73.0 °F - 70.0 °F 90% 30.01 in 10.0 mi NE 5.8 mph - N/A   Scattered Clouds
10:53 PM 72.0 °F - 68.0 °F 87% 30.02 in 10.0 mi NE 4.6 mph - N/A   Scattered Clouds
11:53 PM 71.1 °F - 66.9 °F 87% 30.01 in 10.0 mi NE 3.5 mph - N/A   Clear